Location: Brompton
(51.4000°N, 0.5333°E)
Time: 16:19:38
(UTC+00:00)

Cosmos 1703 Rocket - Pass Details

Date: 11 May 2021
Orbit: 605 x 633 km, 82.5° (Epoch: 23 June)

Event Time Altitude Azimuth Distance (km) Brightness Sun altitude
Exits shadow 23:48:51 53° 199° (SSW) 764 3.6 -20.5°
Maximum altitude 23:49:52 83° 280° (W) 630 3.5 -20.5°
Drops below altitude 10° 23:54:19 10° 9° (N) 2,004 7.3 -20.5°
Sets 23:56:34 0° 11° (N) 2,920 8.5 -20.5°
